Home   Weather   40°44'N, 111°58'W   Past weeks
Flag for USA

Past Weather in 40°44'N, 111°58'W, USA — Yesterday and Last 2 Weeks

Now
60 °F

Passing clouds.


Feels Like: 60 °F
Forecast: 83 / 58 °F
Wind: 7 mph from Southeast

Location: Salt Lake City International Airport

Current Time: Jun 20, 2019 at 7:24:22 am

Latest Report: Jun 20, 2019 at 5:54 am


Visibility: 10 mi

Pressure: 29.73 "Hg

Humidity: 53%

Dew Point: 43 °F

Location of 40°44'N, 111°58'WLocation

Past Weather in 40°44'N, 111°58'W — Graph

°F

40°44'N, 111°58'W Temperature Yesterday

Maximum temperature yesterday: 86 °F (at 4:54 pm)
Minimum temperature yesterday: 64 °F (at 5:54 am)
Average temperature yesterday: 75 °F

High & Low Weather Summary for the Past Weeks

 TemperatureHumidityPressure
High87 °F (Jun 13, 2:54 pm)78% (Jun 7, 2:54 am)30.42 "Hg (Jun 7, 2:54 am)
Low45 °F (Jun 9, 5:54 am)21% (Jun 8, 6:54 pm)29.57 "Hg (Jun 7, 12:54 pm)
Average70 °F43%29.92 "Hg
* Reported Jun 5 5:54 am — Jun 20 5:54 am, 40°44'N, 111°58'W. Weather by CustomWeather, © 2019

Note: Actual official high and low records may vary slightly from our data, if they occured in-between our weather recording intervals... More about our weather records

Advertising

40°44'N, 111°58'W Weather History for the Previous 24 Hours

Scroll right to see more
 ConditionsComfort  
Time TempWeatherWind HumidityBarometerVisibility
5:54 am
Thu, Jun 20
60 °FPassing clouds.7 mph53%29.73 "Hg10 mi
4:54 am62 °FPassing clouds.No wind56%29.72 "Hg10 mi
3:54 am63 °FPassing clouds.3 mph47%29.72 "Hg10 mi
2:54 am64 °FPassing clouds.8 mph41%29.72 "Hg10 mi
1:54 am67 °FPassing clouds.6 mph37%29.73 "Hg10 mi
12:54 am69 °FPassing clouds.10 mph35%29.73 "Hg10 mi
11:54 pm
Wed, Jun 19
70 °FPassing clouds.13 mph38%29.72 "Hg10 mi
10:54 pm72 °FPassing clouds.17 mph35%29.71 "Hg10 mi
10:33 pm74 °FPassing clouds.20 mph40%29.85 "Hg10 mi
9:54 pm75 °FPassing clouds.6 mph39%29.65 "Hg10 mi
8:54 pm82 °FBroken clouds.No wind26%29.65 "Hg10 mi
7:54 pm84 °FBroken clouds.6 mph25%29.65 "Hg10 mi
6:54 pm85 °FScattered clouds.12 mph25%29.68 "Hg10 mi
5:54 pm85 °FScattered clouds.12 mph26%29.70 "Hg10 mi
4:54 pm86 °FScattered clouds.9 mph22%29.72 "Hg10 mi
3:54 pm85 °FScattered clouds.14 mph22%29.75 "Hg10 mi
2:54 pm84 °FBroken clouds.15 mph25%29.76 "Hg10 mi
1:54 pm83 °FBroken clouds.12 mph26%29.78 "Hg10 mi
12:54 pm81 °FScattered clouds.13 mph28%29.82 "Hg10 mi
11:54 am79 °FScattered clouds.8 mph30%29.84 "Hg10 mi
10:54 am77 °FScattered clouds.5 mph35%29.85 "Hg10 mi
9:54 am76 °FScattered clouds.5 mph39%29.85 "Hg10 mi
8:54 am72 °FScattered clouds.5 mph48%29.86 "Hg10 mi
7:54 am68 °FBroken clouds.8 mph49%29.86 "Hg10 mi
Weather by CustomWeather, © 2019

See weather overview